[[{"header":{"parameterUnit":"m.s-1","parameterCategory":2,"la1":30.2991,"la2":30.254,"lo1":-89.0895,"lo2":-89.0444,"dy":0.0017,"dx":0.0017,"nx":28,"ny":28,"refTime":"2024-05-01T21:00:00:Z","depth":"0","parameterNumber":2,"parameterNumberName":"U-component_of_CURRENTS"},"data":[0,0,0,0,0,0,0,0,0,0,0,0,0,0,0,0,0,0,0,0,0,0,0,0,0,0,0,0,0,0,0,0,0,0,0,0,0,0,0,0,0,0,0,0,0,0,0,0,0,0,0,0,0,0,0,0,0,0,0.1428,0.1428,0,0.1431,0.143,0.143,0.144,0.1441,0.1441,0.1442,0.1433,0.1433,0.1432,0,0,0,0,0,0,0,0,0,0,0,0,0,0.14,0.14,0.1428,0.1428,0.1429,0.1431,0.143,0.143,0.144,0.1441,0.1442,0.1442,0.1434,0.1433,0.1432,0,0,0,0,0,0,0,0,0,0,0,0,0,0.1406,0.14,0.1428,0.1436,0.1437,0.1431,0.143,0.143,0.144,0.1441,0.1442,0.1442,0.1434,0.1433,0.1432,0.141,0,0,0.1429,0.1428,0,0,0,0,0,0,0,0,0.1405,0.1406,0.1435,0.1436,0.1437,0.1438,0.1417,0.1424,0.144,0.1436,0.1442,0.1443,0.1435,0.1434,0.1429,0.141,0.141,0.1429,0.1428,0.1428,0.1427,0,0,0,0,0,0,0,0.1405,0.1406,0.1426,0.1435,0.1436,0.1429,0.143,0.1418,0.1429,0.1436,0.1438,0.1442,0.1436,0.143,0.1429,0.141,0.1429,0.1428,0.1427,0.1427,0.1392,0.1392,0,0,0,0,0,0,0.1411,0.1406,0.1426,0.1426,0.1426,0.1429,0.1431,0.1435,0.1429,0.143,0.1442,0.1443,0.1432,0.143,0.1429,0.1456,0.1428,0.1427,0.1426,0.1392,0.1392,0.1391,0,0,0,0,0,0,0.1411,0.1413,0.1426,0.1418,0.142,0.1429,0.1433,0.1434,0.1433,0.1434,0.1434,0.144,0.1432,0.143,0.1417,0.1454,0.1426,0.1425,0.1393,0.1392,0.1392,0.1476,0,0,0,0,0,0,0.141,0.1413,0.1415,0.1419,0.1421,0.1425,0.1433,0.1434,0.1436,0.1437,0.1432,0.1432,0.1433,0.1419,0.1416,0.1452,0.1424,0.1393,0.1392,0.1392,0.1473,0.1478,0.1482,0,0,0,0,0,0.1409,0.141,0.1414,0.1417,0.1424,0.1425,0.1425,0.1432,0.1435,0.1433,0.1427,0.1433,0.1414,0.1417,0.1415,0.1451,0.1393,0.1392,0.1392,0.1471,0.1477,0.1482,0,0,0,0,0,0,0.1398,0.1412,0.1417,0.1422,0.1425,0.1428,0.143,0.143,0.1423,0.1428,0.1422,0.1421,0.1428,0.141,0.1414,0.1433,0.1407,0.1405,0.1468,0.1473,0.1478,0.1516,0.1424,0,0,0,0,0,0.1397,0.1404,0.1412,0.1416,0.142,0.1422,0.1423,0.1429,0.1426,0.1425,0.1422,0.1417,0.1421,0.1423,0.1415,0.1418,0.1426,0.1437,0.1442,0.1446,0.1471,0.15,0.1511,0.1389,0.1389,0.1389,0,0,0.1395,0.1404,0.1407,0.1415,0.1419,0.1436,0.1424,0.143,0.1453,0.1424,0.1443,0.143,0.1421,0.1435,0.1437,0.1429,0.1482,0.1445,0.145,0.1473,0.15,0.1513,0.1524,0.1389,0.1389,0.1389,0,0,0.1402,0.1401,0.1414,0.142,0.1433,0.144,0.1442,0.1447,0.1457,0.1462,0.1459,0.1466,0.1452,0.1473,0.1478,0.1495,0.1501,0.1483,0.1548,0.1575,0.1587,0.1597,0.1622,0.1634,0.1491,0.1491,0.1491,0,0.14,0.1421,0.1416,0.1435,0.145,0.1446,0.147,0.1479,0.148,0.1497,0.1477,0.1491,0.1483,0.153,0.1543,0.1515,0.1522,0.1536,0.1587,0.1597,0.1606,0.1629,0.1642,0.1495,0.1494,0.1494,0.1493,0,0.1425,0.1442,0.1449,0.148,0.149,0.1505,0.1525,0.1538,0.1545,0.1558,0.1588,0.1576,0.159,0.1589,0.1577,0.164,0.1622,0.159,0.1586,0.1625,0.1645,0.1656,0.15,0.1499,0.1498,0.1497,0,0,0.1425,0.1461,0.1465,0.1486,0.1517,0.1526,0.1573,0.1611,0.1644,0.1651,0.1695,0.1714,0.1707,0.1711,0.1698,0.173,0.18,0.1696,0.1695,0.1745,0.1864,0.1884,0.1898,0.1778,0.178,0.1782,0.1854,0,0.145,0.149,0.1509,0.1552,0.1574,0.1596,0.1635,0.1669,0.1692,0.1727,0.1748,0.1771,0.1754,0.1758,0.1795,0.1791,0.1833,0.1784,0.1799,0.18,0.1833,0.1913,0.1899,0.1965,0.1865,0.1867,0.1868,0,0.1474,0.1498,0.1542,0.159,0.1602,0.1628,0.1688,0.1723,0.1781,0.18,0.1845,0.1846,0.1907,0.1866,0.1933,0.19,0.1902,0.19,0.1902,0.1906,0.1842,0.1907,0.1989,0.1963,0.1885,0.1884,0.1883,0,0.1471,0.1524,0.1558,0.1573,0.1624,0.1652,0.1683,0.1741,0.1775,0.1844,0.1873,0.1934,0.1957,0.1986,0.1999,0.1965,0.2063,0.2004,0.2032,0.2032,0.2019,0.2015,0.2103,0.2065,0.2065,0.2065,0.2065,0,0.1489,0.1515,0.1553,0.1568,0.1606,0.1646,0.1695,0.1739,0.1802,0.1846,0.1902,0.1949,0.1988,0.204,0.2041,0.2095,0.2101,0.2082,0.207,0.2044,0.2042,0.2014,0.1972,0.2068,0.2067,0.2066,0.2066,0,0.1474,0.1505,0.1537,0.1587,0.1602,0.1623,0.1685,0.1721,0.179,0.1851,0.1875,0.1972,0.2054,0.2101,0.2151,0.215,0.2143,0.2197,0.2172,0.2157,0.2147,0.2109,0.2074,0.2001,0.2245,0.2246,0.2247,0,0.1469,0.1483,0.1528,0.1542,0.1561,0.1598,0.1627,0.1701,0.1742,0.1859,0.1887,0.1999,0.2075,0.2193,0.2236,0.2291,0.2191,0.2283,0.2223,0.2192,0.2139,0.2005,0.1935,0.223,0.2231,0.2231,0.2232,0,0.1452,0.1464,0.1486,0.1509,0.1534,0.1563,0.1609,0.1636,0.1726,0.1795,0.1892,0.1967,0.2126,0.2207,0.2304,0.2319,0.2198,0.2297,0.2272,0.2167,0.202,0.1927,0.213,0.2238,0.2237,0.2237,0.2236,0.2236,0.1426,0.143,0.1453,0.147,0.1496,0.1509,0.1515,0.1575,0.1631,0.1715,0.1837,0.1951,0.2142,0.2298,0.2297,0.2337,0.2241,0.2294,0.2261,0.2136,0.2044,0.2273,0.2357,0.2357,0.2357,0.2357,0.2357,0,0.1384,0.1396,0.1414,0.1426,0.1426,0.1459,0.1489,0.1487,0.1522,0.1666,0.1761,0.1988,0.2116,0.2241,0.2382,0.2331,0.217,0.2267,0.2083,0.2019,0.2259,0.224,0.2293,0.2293,0.2293,0.2293,0.2293,0.2293,0.1363,0.1359,0.1367,0.1347,0.1355,0.133,0.133,0.1343,0.1427,0.1557,0.1707,0.1851,0.2143,0.2353,0.239,0.2324,0.2114,0.2042,0.1964,0.2168,0.2167,0.2166,0.2142,0.2174,0.2173,0.1662,0.1658,0.1656]},{"header":{"parameterUnit":"m.s-1","parameterCategory":2,"la1":30.2991,"la2":30.254,"lo1":-89.0895,"lo2":-89.0444,"dy":0.0017,"dx":0.0017,"nx":28,"ny":28,"refTime":"2024-05-01T21:00:00:Z","depth":"0","parameterNumber":3,"parameterNumberName":"V-component_of_CURRENTS"},"data":[0,0,0,0,0,0,0,0,0,0,0,0,0,0,0,0,0,0,0,0,0,0,0,0,0,0,0,0,0,0,0,0,0,0,0,0,0,0,0,0,0,0,0,0,0,0,0,0,0,0,0,0,0,0,0,0,0,0,-0.0064,-0.0065,0,-0.0111,-0.0111,-0.0112,-0.0125,-0.0125,-0.0125,-0.0125,-0.0169,-0.017,-0.0171,0,0,0,0,0,0,0,0,0,0,0,0,0,0.0004,0.0003,-0.0064,-0.0065,-0.0066,-0.0111,-0.0111,-0.0112,-0.0125,-0.0125,-0.0125,-0.0125,-0.0168,-0.017,-0.0171,0,0,0,0,0,0,0,0,0,0,0,0,0,-0.0031,0.0003,-0.0064,-0.0079,-0.008,-0.0111,-0.0111,-0.0112,-0.0125,-0.0125,-0.0125,-0.0125,-0.0168,-0.017,-0.0171,-0.0188,0,0,-0.0177,-0.0178,0,0,0,0,0,0,0,0,-0.0029,-0.0034,-0.0076,-0.0078,-0.008,-0.0113,-0.0103,-0.0138,-0.0125,-0.0107,-0.0125,-0.0124,-0.015,-0.0154,-0.0162,-0.019,-0.0192,-0.0178,-0.0179,-0.018,-0.018,0,0,0,0,0,0,0,-0.0027,-0.0032,-0.0082,-0.0076,-0.0079,-0.0086,-0.009,-0.011,-0.0129,-0.0109,-0.011,-0.0117,-0.0151,-0.016,-0.0163,-0.0193,-0.0178,-0.0179,-0.0181,-0.0181,-0.0216,-0.0216,0,0,0,0,0,0,-0.0023,-0.003,-0.008,-0.0083,-0.0054,-0.0087,-0.0092,-0.0102,-0.0129,-0.0133,-0.0117,-0.0117,-0.0157,-0.0161,-0.0165,-0.0167,-0.018,-0.0182,-0.0183,-0.0216,-0.0216,-0.0216,0,0,0,0,0,0,-0.0021,-0.0027,-0.0078,-0.0058,-0.0065,-0.0088,-0.0099,-0.0103,-0.0111,-0.0135,-0.0139,-0.0121,-0.0157,-0.0162,-0.0178,-0.017,-0.0182,-0.0184,-0.0217,-0.0216,-0.0216,-0.0185,0,0,0,0,0,0,-0.0019,-0.0026,-0.003,-0.0058,-0.0066,-0.0095,-0.01,-0.0104,-0.0116,-0.0117,-0.014,-0.0144,-0.0157,-0.0175,-0.018,-0.0173,-0.0186,-0.0217,-0.0217,-0.0216,-0.0187,-0.0184,-0.0182,0,0,0,0,0,-0.0017,-0.0021,-0.003,-0.0036,-0.0071,-0.0095,-0.01,-0.0115,-0.0116,-0.0121,-0.0133,-0.0143,-0.0175,-0.0176,-0.0182,-0.0176,-0.0217,-0.0217,-0.0216,-0.0188,-0.0184,-0.0182,0,0,0,0,0,0,0.0009,-0.0024,-0.0034,-0.0047,-0.007,-0.0098,-0.0104,-0.0115,-0.0129,-0.0128,-0.0146,-0.0151,-0.0163,-0.0174,-0.0175,-0.0184,-0.0196,-0.0196,-0.0172,-0.0169,-0.0166,-0.0149,-0.0187,0,0,0,0,0,0.0011,-0.0001,-0.0032,-0.0043,-0.0054,-0.0079,-0.009,-0.0102,-0.012,-0.0126,-0.0142,-0.0155,-0.0166,-0.0171,-0.0188,-0.0195,-0.0205,-0.0192,-0.019,-0.0188,-0.0177,-0.0187,-0.0185,-0.0214,-0.0214,-0.0214,0,0,0.0017,-0.0001,-0.0008,-0.0038,-0.0056,-0.0061,-0.0085,-0.0102,-0.0099,-0.0129,-0.0131,-0.0153,-0.0168,-0.0175,-0.018,-0.0181,-0.0186,-0.0187,-0.0185,-0.0175,-0.0186,-0.0183,-0.0181,-0.0214,-0.0214,-0.0214,0,0,0.0031,0.0007,0.0005,-0.001,-0.0037,-0.0052,-0.0056,-0.0086,-0.0093,-0.0107,-0.012,-0.0136,-0.0158,-0.0162,-0.0166,-0.016,-0.0177,-0.0166,-0.0134,-0.0144,-0.0142,-0.0139,-0.0154,-0.0153,-0.0158,-0.0158,-0.0158,0,0.0042,0.0037,0.0001,0.0001,-0.0002,-0.0043,-0.0036,-0.0053,-0.0081,-0.0082,-0.0102,-0.0128,-0.0148,-0.014,-0.0138,-0.0154,-0.0164,-0.0144,-0.014,-0.0138,-0.0137,-0.0152,-0.0152,-0.0157,-0.0157,-0.0157,-0.0157,0,0.0059,0.0058,0.0055,0.0045,0.0035,0.0029,0.0004,-0.0007,-0.0026,-0.0041,-0.0054,-0.0089,-0.0097,-0.011,-0.0123,-0.0115,-0.0128,-0.0141,-0.0146,-0.0132,-0.0149,-0.0149,-0.0154,-0.0155,-0.0155,-0.0156,0,0,0.0081,0.007,0.0072,0.0083,0.006,0.0057,0.0056,0.0048,0.006,0.0015,0.0027,-0.0009,-0.0034,-0.004,-0.0064,-0.0075,-0.0082,-0.0098,-0.0099,-0.0109,-0.0106,-0.0117,-0.0119,-0.0094,-0.0094,-0.0094,-0.0125,0,0.0109,0.0129,0.0114,0.014,0.0149,0.0122,0.0132,0.0119,0.0098,0.0094,0.0049,0.0044,-0.0004,-0.0008,-0.0028,-0.0066,-0.008,-0.0073,-0.0121,-0.0122,-0.0131,-0.0118,-0.0112,-0.0139,-0.0125,-0.0125,-0.0125,0,0.0136,0.0148,0.0178,0.02,0.0202,0.0211,0.0223,0.0224,0.0204,0.0187,0.0161,0.0126,0.01,0.0055,-0.0004,0.0003,-0.0045,-0.0083,-0.0085,-0.0103,-0.0133,-0.015,-0.014,-0.0261,-0.0126,-0.0126,-0.0126,0,0.0179,0.0198,0.0228,0.0232,0.0243,0.0256,0.026,0.0252,0.027,0.0243,0.025,0.0201,0.0185,0.0116,0.0031,0.0017,-0.0036,-0.0066,-0.0123,-0.0125,-0.0132,-0.0134,-0.0238,-0.0105,-0.0104,-0.0104,-0.0104,0,0.0217,0.0243,0.025,0.0267,0.0313,0.0301,0.0341,0.0335,0.0342,0.0372,0.0301,0.0315,0.0201,0.0153,0.0062,-0.0027,-0.0014,-0.0111,-0.0129,-0.0122,-0.0123,-0.0238,-0.031,-0.0106,-0.0105,-0.0105,-0.0105,0,0.0256,0.0258,0.0298,0.032,0.0332,0.0361,0.0399,0.0431,0.0421,0.0457,0.0455,0.041,0.0342,0.0226,0.012,0.0026,-0.0135,-0.01,-0.0087,-0.0103,-0.0276,-0.0345,-0.0467,-0.0519,-0.0171,-0.0171,-0.0171,0,0.0277,0.0299,0.0339,0.0369,0.0379,0.0419,0.0455,0.0467,0.0505,0.0521,0.055,0.0499,0.0478,0.0309,0.0133,-0.0026,-0.0143,-0.0128,-0.0157,-0.0279,-0.037,-0.0428,-0.0466,-0.016,-0.016,-0.016,-0.016,0,0.0321,0.033,0.0362,0.0421,0.0465,0.052,0.0569,0.0615,0.0633,0.0666,0.0705,0.0694,0.0528,0.0376,0.0149,0.0026,-0.0221,-0.0137,-0.0264,-0.0368,-0.0435,-0.0495,-0.0154,-0.0162,-0.0161,-0.0161,-0.0161,-0.0161,0.0353,0.0383,0.0422,0.048,0.0537,0.061,0.0661,0.0721,0.0792,0.0851,0.0833,0.0848,0.0613,0.0306,0.011,-0.0233,-0.0245,-0.0334,-0.0408,-0.0454,-0.0508,-0.0172,-0.0199,-0.0199,-0.0199,-0.0199,-0.0199,0,0.0389,0.0423,0.048,0.0549,0.0618,0.064,0.0735,0.0789,0.0877,0.0953,0.099,0.0919,0.0608,0.029,-0.0171,-0.044,-0.0548,-0.0594,-0.068,-0.0705,-0.0403,-0.0407,-0.0478,-0.0478,-0.0478,-0.0478,-0.0478,-0.0478,0.0411,0.0465,0.0492,0.0603,0.0657,0.0749,0.0805,0.0892,0.0971,0.1075,0.1127,0.1147,0.095,0.005,-0.0565,-0.072,-0.0902,-0.0959,-0.1051,-0.0857,-0.0839,-0.0821,-0.0842,-0.1003,-0.1004,-0.1314,-0.1317,-0.132]}],[{"header":{"parameterUnit":"m.s-1","parameterCategory":2,"la1":30.2991,"la2":30.254,"lo1":-89.0895,"lo2":-89.0444,"dy":0.0017,"dx":0.0017,"nx":28,"ny":28,"refTime":"2024-05-01T21:00:00:Z","depth":"2","parameterNumber":2,"parameterNumberName":"U-component_of_CURRENTS"},"data":[0,0,0,0,0,0,0,0,0,0,0,0,0,0,0,0,0,0,0,0,0,0,0,0,0,0,0,0,0,0,0,0,0,0,0,0,0,0,0,0,0,0,0,0,0,0,0,0,0,0,0,0,0,0,0,0,0,0,0.1493,0.1494,0,0.15,0.15,0.15,0.1509,0.151,0.151,0.151,0.1509,0.1509,0.1509,0,0,0,0,0,0,0,0,0,0,0,0,0,0.1451,0.1452,0.1493,0.1494,0.1494,0.15,0.15,0.15,0.1509,0.151,0.151,0.1511,0.1509,0.1509,0.1509,0,0,0,0,0,0,0,0,0,0,0,0,0,0.1462,0.1452,0.1493,0.1501,0.1502,0.15,0.15,0.15,0.1509,0.151,0.151,0.1511,0.151,0.1509,0.1508,0.1493,0,0,0.1507,0.1506,0,0,0,0,0,0,0,0,0.1462,0.1464,0.15,0.1501,0.1502,0.1507,0.1485,0.1498,0.1509,0.1504,0.151,0.1511,0.1509,0.1509,0.1505,0.1493,0.1493,0.1507,0.1506,0.1506,0.1506,0,0,0,0,0,0,0,0.1461,0.1463,0.1493,0.15,0.1501,0.1492,0.1494,0.1487,0.1501,0.1504,0.1505,0.151,0.1509,0.1505,0.1505,0.1493,0.1507,0.1506,0.1506,0.1505,0.1482,0.1482,0,0,0,0,0,0,0.1467,0.1463,0.1493,0.1494,0.1486,0.1493,0.1495,0.1502,0.1501,0.1502,0.151,0.1511,0.1506,0.1506,0.1505,0.1533,0.1506,0.1505,0.1505,0.1483,0.1482,0.1482,0,0,0,0,0,0,0.1466,0.147,0.1493,0.148,0.1483,0.1493,0.1501,0.1502,0.1501,0.1506,0.1507,0.1508,0.1507,0.1506,0.1496,0.1531,0.1505,0.1505,0.1483,0.1483,0.1482,0.1559,0,0,0,0,0,0,0.1465,0.1469,0.1473,0.1481,0.1484,0.1494,0.1501,0.1502,0.1505,0.1506,0.1505,0.1505,0.1507,0.1497,0.1495,0.153,0.1504,0.1483,0.1483,0.1482,0.1557,0.1561,0.1565,0,0,0,0,0,0.1463,0.1467,0.1473,0.1477,0.149,0.1494,0.1494,0.1501,0.1504,0.1502,0.1498,0.1505,0.1493,0.1496,0.1494,0.153,0.1483,0.1483,0.1482,0.1555,0.156,0.1565,0,0,0,0,0,0,0.1449,0.1469,0.1476,0.1485,0.1491,0.1497,0.1498,0.1499,0.1494,0.1498,0.1496,0.1496,0.1505,0.149,0.1493,0.1516,0.1492,0.1491,0.1547,0.1552,0.1556,0.1593,0.1504,0,0,0,0,0,0.1448,0.1459,0.1472,0.1479,0.1484,0.1489,0.1491,0.1497,0.1497,0.1495,0.1495,0.1493,0.1499,0.1503,0.1498,0.1505,0.151,0.1524,0.1528,0.1532,0.1558,0.1579,0.1589,0.148,0.148,0.148,0,0,0.1444,0.1458,0.1463,0.1477,0.1483,0.1501,0.1491,0.1498,0.1522,0.1495,0.1516,0.1504,0.15,0.1516,0.152,0.1512,0.1563,0.1532,0.1536,0.1559,0.158,0.1591,0.1601,0.148,0.148,0.148,0,0,0.145,0.1455,0.1471,0.1479,0.1495,0.1504,0.1506,0.1514,0.1525,0.1532,0.153,0.1539,0.153,0.1552,0.1559,0.1577,0.1581,0.1566,0.1629,0.1649,0.166,0.1669,0.1687,0.1698,0.1574,0.1574,0.1574,0,0.1447,0.1473,0.1472,0.1493,0.1509,0.1509,0.1533,0.1544,0.1549,0.1565,0.1547,0.1565,0.156,0.1608,0.1621,0.1595,0.1598,0.1618,0.166,0.1669,0.1677,0.1694,0.1704,0.1577,0.1577,0.1577,0.1576,0,0.1472,0.1492,0.15,0.1536,0.1547,0.1563,0.1586,0.16,0.1607,0.1623,0.1654,0.1646,0.1662,0.1662,0.1654,0.1713,0.1693,0.1662,0.1659,0.1694,0.1707,0.1717,0.1583,0.1581,0.158,0.1579,0,0,0.147,0.1512,0.1516,0.1537,0.1573,0.1582,0.1629,0.1669,0.17,0.1711,0.1753,0.1778,0.1772,0.1779,0.1769,0.1797,0.1857,0.1762,0.1762,0.1803,0.1904,0.191,0.1921,0.1832,0.1834,0.1835,0.189,0,0.1494,0.1537,0.1559,0.1601,0.1624,0.1647,0.1687,0.1723,0.1746,0.1779,0.1805,0.1827,0.1817,0.182,0.1856,0.1847,0.1885,0.1845,0.1845,0.1846,0.1866,0.1934,0.1797,0.1836,0.1899,0.1901,0.1902,0,0.1517,0.1544,0.1587,0.1635,0.1647,0.1673,0.1731,0.1766,0.1824,0.1842,0.1888,0.1891,0.1952,0.1916,0.1975,0.1946,0.1945,0.1941,0.1941,0.1935,0.1871,0.1809,0.1851,0.1918,0.1917,0.1915,0.1914,0,0.1509,0.1564,0.1598,0.1613,0.1667,0.1693,0.1725,0.1782,0.1815,0.188,0.1904,0.1966,0.1987,0.2013,0.2025,0.1996,0.2076,0.2023,0.2037,0.2036,0.1917,0.1903,0.2077,0.2077,0.2077,0.2077,0.2076,0,0.1523,0.1547,0.1591,0.1605,0.1642,0.1683,0.1728,0.177,0.1832,0.1873,0.1929,0.197,0.2011,0.2056,0.2058,0.2098,0.2107,0.2082,0.2066,0.1937,0.1925,0.1985,0.1974,0.2079,0.2078,0.2078,0.2077,0,0.1501,0.1535,0.1567,0.162,0.1635,0.1654,0.1715,0.1748,0.1813,0.1869,0.1891,0.1983,0.2053,0.21,0.2141,0.2138,0.2165,0.2171,0.2027,0.1995,0.2099,0.209,0.2195,0.2196,0.2196,0.2197,0.2198,0,0.1493,0.1507,0.1554,0.1568,0.1588,0.1625,0.1652,0.1724,0.1761,0.1871,0.1895,0.1995,0.206,0.2156,0.2179,0.2219,0.2212,0.2096,0.203,0.2146,0.2118,0.2108,0.2099,0.1888,0.1886,0.1884,0.1883,0,0.1469,0.1483,0.1505,0.1531,0.1555,0.1582,0.1627,0.165,0.1738,0.18,0.1885,0.1949,0.2072,0.2073,0.2147,0.2137,0.2083,0.2067,0.2228,0.1891,0.1864,0.1835,0.1834,0.1868,0.187,0.1871,0.1872,0.1872,0.144,0.1444,0.147,0.1488,0.1513,0.1524,0.1527,0.1582,0.1632,0.1701,0.1811,0.1872,0.194,0.2001,0.1965,0.1945,0.2075,0.1971,0.1972,0.1976,0.1943,0.192,0.1928,0.193,0.1932,0.1933,0.1934,0,0.1396,0.1409,0.1427,0.144,0.1438,0.1473,0.1499,0.1492,0.1518,0.1623,0.1697,0.1642,0.1688,0.174,0.1712,0.174,0.1673,0.1653,0.1546,0.1565,0.1581,0.1522,0.1399,0.1397,0.1394,0.1392,0,0,0.1374,0.137,0.1378,0.1357,0.1368,0.1342,0.134,0.1342,0.1396,0.1419,0.146,0.1626,0.1726,0.1537,0.1539,0.1461,0.1485,0.1407,0.1851,0.1747,0.1759,0.1801,0.1739,0,0,0,0,0]},{"header":{"parameterUnit":"m.s-1","parameterCategory":2,"la1":30.2991,"la2":30.254,"lo1":-89.0895,"lo2":-89.0444,"dy":0.0017,"dx":0.0017,"nx":28,"ny":28,"refTime":"2024-05-01T21:00:00:Z","depth":"2","parameterNumber":3,"parameterNumberName":"V-component_of_CURRENTS"},"data":[0,0,0,0,0,0,0,0,0,0,0,0,0,0,0,0,0,0,0,0,0,0,0,0,0,0,0,0,0,0,0,0,0,0,0,0,0,0,0,0,0,0,0,0,0,0,0,0,0,0,0,0,0,0,0,0,0,0,-0.0134,-0.0134,0,-0.0182,-0.0182,-0.0183,-0.0197,-0.0197,-0.0197,-0.0197,-0.0242,-0.0243,-0.0244,0,0,0,0,0,0,0,0,0,0,0,0,0,-0.0068,-0.0069,-0.0134,-0.0134,-0.0135,-0.0182,-0.0182,-0.0183,-0.0197,-0.0197,-0.0197,-0.0197,-0.0241,-0.0243,-0.0244,0,0,0,0,0,0,0,0,0,0,0,0,0,-0.0103,-0.0069,-0.0134,-0.0148,-0.015,-0.0182,-0.0182,-0.0183,-0.0197,-0.0197,-0.0197,-0.0197,-0.0241,-0.0243,-0.0245,-0.0262,0,0,-0.0251,-0.0252,0,0,0,0,0,0,0,0,-0.0101,-0.0106,-0.0146,-0.0148,-0.015,-0.0184,-0.0175,-0.021,-0.0197,-0.0179,-0.0197,-0.0197,-0.0223,-0.0226,-0.0235,-0.0264,-0.0266,-0.0251,-0.0252,-0.0253,-0.0254,0,0,0,0,0,0,0,-0.0099,-0.0104,-0.0152,-0.0146,-0.0149,-0.0157,-0.0162,-0.0182,-0.0201,-0.018,-0.0182,-0.0188,-0.0224,-0.0233,-0.0236,-0.0267,-0.0251,-0.0253,-0.0254,-0.0255,-0.0286,-0.0285,0,0,0,0,0,0,-0.0094,-0.0101,-0.015,-0.0153,-0.0125,-0.0159,-0.0164,-0.0173,-0.0201,-0.0205,-0.0189,-0.0189,-0.0229,-0.0233,-0.0237,-0.024,-0.0253,-0.0255,-0.0256,-0.0286,-0.0286,-0.0285,0,0,0,0,0,0,-0.0093,-0.0098,-0.0149,-0.0129,-0.0136,-0.016,-0.017,-0.0174,-0.0182,-0.0207,-0.0211,-0.0192,-0.0229,-0.0235,-0.0249,-0.0242,-0.0256,-0.0258,-0.0287,-0.0286,-0.0286,-0.0257,0,0,0,0,0,0,-0.009,-0.0097,-0.01,-0.0129,-0.0137,-0.0164,-0.017,-0.0175,-0.0187,-0.0187,-0.0212,-0.0216,-0.023,-0.0246,-0.0251,-0.0245,-0.0259,-0.0287,-0.0286,-0.0286,-0.0259,-0.0256,-0.0253,0,0,0,0,0,-0.0088,-0.0091,-0.01,-0.0106,-0.0141,-0.0164,-0.0169,-0.0184,-0.0187,-0.019,-0.0203,-0.0215,-0.0245,-0.0247,-0.0254,-0.0248,-0.0287,-0.0287,-0.0286,-0.026,-0.0256,-0.0253,0,0,0,0,0,0,-0.0063,-0.0094,-0.0104,-0.0117,-0.0138,-0.0166,-0.0172,-0.0183,-0.0197,-0.0197,-0.0217,-0.0222,-0.0232,-0.0244,-0.0246,-0.0254,-0.0266,-0.0266,-0.0244,-0.0241,-0.0238,-0.0223,-0.0261,0,0,0,0,0,-0.006,-0.0071,-0.0101,-0.0111,-0.0122,-0.0147,-0.0157,-0.017,-0.0188,-0.0193,-0.021,-0.0223,-0.0234,-0.024,-0.0256,-0.0263,-0.0274,-0.0261,-0.0258,-0.0256,-0.0247,-0.0258,-0.0255,-0.0282,-0.0282,-0.0282,0,0,-0.0054,-0.0072,-0.0078,-0.0106,-0.0124,-0.0129,-0.0152,-0.0169,-0.0167,-0.0197,-0.0199,-0.022,-0.0236,-0.0242,-0.0247,-0.0249,-0.0255,-0.0255,-0.0253,-0.0245,-0.0256,-0.0254,-0.0251,-0.0282,-0.0282,-0.0282,0,0,-0.0041,-0.0063,-0.0065,-0.0078,-0.0104,-0.012,-0.0123,-0.0152,-0.0159,-0.0172,-0.0186,-0.0201,-0.0223,-0.0228,-0.0234,-0.0226,-0.0245,-0.023,-0.0201,-0.0212,-0.0209,-0.0208,-0.0224,-0.0223,-0.0224,-0.0224,-0.0224,0,-0.0031,-0.0036,-0.0068,-0.0068,-0.0071,-0.0111,-0.0104,-0.0121,-0.0148,-0.0148,-0.0168,-0.0193,-0.0214,-0.0208,-0.0205,-0.022,-0.023,-0.0213,-0.0208,-0.0206,-0.0205,-0.0222,-0.0222,-0.0222,-0.0222,-0.0222,-0.0223,0,-0.0016,-0.0017,-0.0019,-0.0029,-0.0037,-0.0042,-0.0066,-0.0076,-0.0095,-0.011,-0.0122,-0.0156,-0.0164,-0.0176,-0.0191,-0.0184,-0.0197,-0.0208,-0.0216,-0.02,-0.0219,-0.022,-0.022,-0.0221,-0.0221,-0.0221,0,0,0.0003,-0.0005,-0.0004,0.0008,-0.0014,-0.0016,-0.0017,-0.0025,-0.0015,-0.0056,-0.0046,-0.0081,-0.0104,-0.0111,-0.0135,-0.0147,-0.0157,-0.0169,-0.017,-0.0184,-0.0182,-0.0195,-0.0197,-0.0167,-0.0166,-0.0166,-0.0202,0,0.0028,0.0047,0.0034,0.0059,0.0069,0.0044,0.0054,0.0042,0.0021,0.0017,-0.0026,-0.0032,-0.0077,-0.0081,-0.0102,-0.0141,-0.0156,-0.0146,-0.0195,-0.0197,-0.0209,-0.0197,-0.0184,-0.0215,-0.0203,-0.0203,-0.0203,0,0.0051,0.0064,0.0093,0.0116,0.0118,0.0127,0.014,0.014,0.012,0.0104,0.008,0.0046,0.0019,-0.0023,-0.0084,-0.0075,-0.0122,-0.016,-0.0162,-0.0182,-0.021,-0.0227,-0.0217,-0.0204,-0.0204,-0.0204,-0.0204,0,0.0089,0.0109,0.0138,0.0143,0.0156,0.017,0.0175,0.0168,0.0183,0.0158,0.0163,0.0115,0.0097,0.0031,-0.0055,-0.0066,-0.0126,-0.015,-0.0206,-0.0208,-0.021,-0.0212,-0.0187,-0.0187,-0.0187,-0.0187,-0.0187,0,0.0122,0.0148,0.0159,0.0176,0.022,0.0211,0.025,0.0245,0.025,0.0276,0.0211,0.0219,0.011,0.0059,-0.0028,-0.0118,-0.0105,-0.0196,-0.0214,-0.0201,-0.0202,-0.0201,-0.0202,-0.0188,-0.0188,-0.0188,-0.0188,0,0.0155,0.0161,0.0199,0.0224,0.0237,0.0266,0.0303,0.0332,0.0324,0.0354,0.0352,0.0303,0.0232,0.0121,0.0014,-0.0073,-0.0162,-0.0196,-0.0178,-0.0193,-0.0248,-0.0247,-0.0263,-0.0264,-0.0265,-0.0265,-0.0265,0,0.0173,0.0195,0.0236,0.0266,0.0278,0.0317,0.0352,0.0365,0.0397,0.0409,0.0432,0.0378,0.0348,0.0178,0.0014,-0.0136,-0.0156,-0.0224,-0.0244,-0.0237,-0.0253,-0.0252,-0.025,-0.024,-0.024,-0.024,-0.024,0,0.021,0.0221,0.0252,0.0311,0.0353,0.0406,0.0452,0.0493,0.0511,0.054,0.0566,0.0548,0.0382,0.0231,0.0017,-0.009,-0.0202,-0.0231,-0.0221,-0.0221,-0.0218,-0.0233,-0.0232,-0.0242,-0.0241,-0.0241,-0.0241,-0.0241,0.0237,0.0265,0.0304,0.036,0.0416,0.0484,0.053,0.0585,0.0648,0.0695,0.0671,0.0654,0.0468,0.0205,0.0004,-0.0209,-0.0201,-0.0273,-0.0271,-0.027,-0.0259,-0.0257,-0.0286,-0.0286,-0.0286,-0.0286,-0.0287,0,0.0269,0.03,0.0354,0.042,0.0484,0.0509,0.0596,0.0641,0.0719,0.077,0.0793,0.0639,0.0463,0.0251,-0.0064,-0.0254,-0.0273,-0.0313,-0.0293,-0.029,-0.0288,-0.0278,-0.0311,-0.0311,-0.0312,-0.0312,0,0,0.0287,0.0337,0.0361,0.0462,0.0516,0.0602,0.0654,0.0725,0.0781,0.0831,0.0839,0.0814,0.0554,0.0328,0.0059,-0.0124,-0.0164,-0.0163,-0.0124,-0.0067,-0.0063,-0.0246,-0.0226,0,0,0,0,0]}],[{"header":{"parameterUnit":"m.s-1","parameterCategory":2,"la1":30.2991,"la2":30.254,"lo1":-89.0895,"lo2":-89.0444,"dy":0.0017,"dx":0.0017,"nx":28,"ny":28,"refTime":"2024-05-01T21:00:00:Z","depth":"4","parameterNumber":2,"parameterNumberName":"U-component_of_CURRENTS"},"data":[0,0,0,0,0,0,0,0,0,0,0,0,0,0,0,0,0,0,0,0,0,0,0,0,0,0,0,0,0,0,0,0,0,0,0,0,0,0,0,0,0,0,0,0,0,0,0,0,0,0,0,0,0,0,0,0,0,0,0.0914,0.0915,0,0.0926,0.0926,0.0926,0.0974,0.0975,0.0977,0.0978,0.1055,0.1056,0.1056,0,0,0,0,0,0,0,0,0,0,0,0,0,0.0911,0.0911,0.0914,0.0915,0.0915,0.0926,0.0926,0.0926,0.0974,0.0975,0.0977,0.0978,0.1055,0.1055,0.1056,0,0,0,0,0,0,0,0,0,0,0,0,0,0.0914,0.0911,0.0914,0.0942,0.0945,0.0926,0.0926,0.0926,0.0973,0.0975,0.0977,0.0979,0.1054,0.1055,0.1057,0.1023,0,0,0.106,0.1061,0,0,0,0,0,0,0,0,0.0914,0.0914,0.0938,0.094,0.0943,0.0953,0.0954,0.0963,0.0973,0.096,0.0978,0.098,0.1027,0.1031,0.1023,0.1027,0.103,0.106,0.1061,0.1061,0.1062,0,0,0,0,0,0,0,0.0914,0.0914,0.0916,0.0938,0.0941,0.0947,0.095,0.0955,0.0981,0.0961,0.0965,0.097,0.1029,0.1022,0.1026,0.1031,0.106,0.1061,0.1062,0.1062,0.1143,0.1144,0,0,0,0,0,0,0.0917,0.0913,0.0916,0.0917,0.0937,0.0946,0.0949,0.0946,0.0979,0.0987,0.0968,0.0972,0.1019,0.1024,0.1029,0.1104,0.1061,0.1063,0.1063,0.1142,0.1143,0.1145,0,0,0,0,0,0,0.0916,0.0916,0.0915,0.0918,0.0919,0.0944,0.094,0.0945,0.0971,0.0985,0.0994,0.0995,0.1021,0.1027,0.1064,0.1103,0.1063,0.1064,0.114,0.1142,0.1144,0.1182,0,0,0,0,0,0,0.0916,0.0916,0.0925,0.0918,0.0919,0.093,0.0939,0.0944,0.0971,0.0977,0.1009,0.1017,0.1023,0.1063,0.1066,0.1104,0.1065,0.1138,0.1141,0.1143,0.1178,0.1185,0.119,0,0,0,0,0,0.0916,0.0919,0.0925,0.0926,0.0927,0.0931,0.0932,0.0955,0.097,0.0985,0.1009,0.1017,0.1083,0.1064,0.1067,0.1107,0.1137,0.114,0.1143,0.1176,0.1183,0.119,0,0,0,0,0,0,0.0925,0.0924,0.0931,0.0935,0.0945,0.0941,0.0956,0.0967,0.0993,0.1009,0.1022,0.1031,0.1081,0.1085,0.1064,0.114,0.1116,0.112,0.114,0.1147,0.1153,0.1166,0.1066,0,0,0,0,0,0.0928,0.0931,0.0934,0.094,0.0946,0.0953,0.0962,0.0978,0.0994,0.1009,0.1031,0.106,0.1088,0.1111,0.113,0.1161,0.1171,0.1194,0.12,0.1205,0.1219,0.1257,0.1267,0.1156,0.1155,0.1155,0,0,0.0934,0.0934,0.0938,0.0943,0.095,0.0965,0.0964,0.0986,0.1012,0.1012,0.106,0.1078,0.11,0.1142,0.1166,0.1156,0.1242,0.1209,0.1213,0.1224,0.1261,0.1272,0.1282,0.1158,0.1157,0.1157,0,0,0.0941,0.0947,0.0953,0.0964,0.0983,0.0988,0.1002,0.1016,0.104,0.1073,0.1091,0.1132,0.1165,0.1194,0.121,0.1257,0.1267,0.1273,0.1317,0.1354,0.1363,0.1372,0.1396,0.1406,0.128,0.128,0.128,0,0.0953,0.0959,0.0958,0.0972,0.0991,0.1004,0.1027,0.1043,0.1074,0.11,0.1103,0.1172,0.1191,0.125,0.1276,0.1272,0.1291,0.1286,0.1361,0.137,0.1378,0.1401,0.1412,0.1282,0.1282,0.1282,0.1282,0,0.0961,0.098,0.0986,0.1007,0.1027,0.1048,0.1073,0.1105,0.1133,0.1153,0.1219,0.1238,0.1286,0.1301,0.1305,0.138,0.1374,0.1358,0.1341,0.1391,0.1412,0.1423,0.1286,0.1285,0.1284,0.1284,0,0,0.0953,0.0985,0.0993,0.1015,0.1052,0.1067,0.1116,0.1161,0.1205,0.1239,0.1296,0.1345,0.1365,0.1386,0.14,0.1437,0.1507,0.1433,0.1434,0.1453,0.159,0.1494,0.1496,0.1508,0.151,0.1512,0.158,0,0.0966,0.0996,0.1015,0.1062,0.1081,0.112,0.1164,0.1212,0.1254,0.1311,0.1346,0.1402,0.1394,0.1431,0.1467,0.1499,0.1538,0.149,0.1543,0.1544,0.1449,0.1506,0.1519,0.1588,0.159,0.1592,0.1593,0,0.097,0.0991,0.1034,0.1094,0.1109,0.1147,0.1228,0.1271,0.1348,0.1384,0.1444,0.147,0.1542,0.152,0.1602,0.1576,0.1597,0.1609,0.1612,0.1519,0.1468,0.1529,0.1612,0.1611,0.161,0.1608,0.1607,0,0.0956,0.1009,0.1047,0.1066,0.1131,0.1176,0.1223,0.1301,0.1349,0.1442,0.1486,0.1556,0.1605,0.1643,0.1674,0.1654,0.175,0.1716,0.1647,0.164,0.1688,0.1678,0.1779,0.1779,0.1779,0.1779,0.1779,0,0.0952,0.0986,0.1049,0.1069,0.1128,0.1183,0.1259,0.1316,0.1407,0.1463,0.1529,0.1577,0.1643,0.1695,0.1709,0.1712,0.178,0.1671,0.1659,0.1701,0.1692,0.1695,0.1685,0.1781,0.1781,0.178,0.178,0,0.0928,0.0968,0.1013,0.109,0.112,0.1166,0.1269,0.1319,0.1415,0.1492,0.1527,0.1622,0.1684,0.1731,0.1797,0.1749,0.1764,0.1748,0.1802,0.1788,0.1621,0.1611,0.1675,0.1673,0.167,0.1669,0.1667,0,0.0915,0.0935,0.1016,0.1045,0.1085,0.1159,0.1208,0.1312,0.1362,0.1499,0.1526,0.1629,0.1675,0.1688,0.1744,0.1766,0.1744,0.1738,0.167,0.1633,0.1614,0.1608,0.1602,0.1663,0.1663,0.1662,0.1662,0,0.0888,0.0925,0.0959,0.1014,0.1068,0.1118,0.1197,0.1227,0.1343,0.144,0.1491,0.1528,0.1595,0.163,0.1665,0.1672,0.1731,0.1713,0.1717,0.1654,0.1619,0.1601,0.1598,0.1654,0.1655,0.1656,0.1656,0,0.087,0.0883,0.0931,0.0972,0.1031,0.106,0.1108,0.1166,0.1228,0.1373,0.1385,0.1488,0.1578,0.1584,0.1613,0.1618,0.1588,0.1527,0.154,0.155,0.1476,0.1411,0.1386,0,0,0,0,0,0.0846,0.0852,0.0886,0.0921,0.0973,0.1009,0.1092,0.1142,0.125,0.1254,0.1318,0.1371,0.1418,0.1471,0.1451,0.1563,0.1596,0.1532,0.1533,0.161,0.1619,0.1543,0,0,0,0,0,0,0.0828,0.0857,0.0863,0.0867,0.0884,0.0933,0.0982,0.1055,0.1063,0.1176,0.1208,0.1293,0.1358,0.1417,0.1426,0.1444,0.1417,0.16,0.1597,0.1605,0.1613,0.1621,0.1546,0,0,0,0,0]},{"header":{"parameterUnit":"m.s-1","parameterCategory":2,"la1":30.2991,"la2":30.254,"lo1":-89.0895,"lo2":-89.0444,"dy":0.0017,"dx":0.0017,"nx":28,"ny":28,"refTime":"2024-05-01T21:00:00:Z","depth":"4","parameterNumber":3,"parameterNumberName":"V-component_of_CURRENTS"},"data":[0,0,0,0,0,0,0,0,0,0,0,0,0,0,0,0,0,0,0,0,0,0,0,0,0,0,0,0,0,0,0,0,0,0,0,0,0,0,0,0,0,0,0,0,0,0,0,0,0,0,0,0,0,0,0,0,0,0,0.0052,0.0052,0,0.0046,0.0046,0.0046,0.0023,0.0023,0.0022,0.0022,0.0,0.0,0.0,0,0,0,0,0,0,0,0,0,0,0,0,0,0.0047,0.0047,0.0052,0.0051,0.0051,0.0046,0.0046,0.0046,0.0024,0.0023,0.0022,0.0021,0.0,0.0,0.0,0,0,0,0,0,0,0,0,0,0,0,0,0,0.0047,0.0047,0.0052,0.0038,0.0037,0.0046,0.0046,0.0046,0.0024,0.0023,0.0022,0.0021,0.0,0.0,0.0,0.002,0,0,0.0,0.0,0,0,0,0,0,0,0,0,0.0047,0.0047,0.0041,0.0039,0.0038,0.0033,0.0036,0.0036,0.0024,0.003,0.0022,0.002,0.001,0.0009,0.0012,0.0019,0.0018,0.0,0.0,0.0,0.0,0,0,0,0,0,0,0,0.0047,0.0047,0.0051,0.004,0.0039,0.0034,0.0033,0.0036,0.0026,0.003,0.0028,0.0025,0.0009,0.0012,0.0011,0.0018,0.0,0.0,0.0001,0.0001,0.0013,0.0014,0,0,0,0,0,0,0.0046,0.0048,0.0051,0.005,0.0038,0.0034,0.0034,0.0037,0.0026,0.0024,0.0026,0.0024,0.0013,0.0011,0.001,0.0006,0.0,0.0001,0.0001,0.0013,0.0014,0.0014,0,0,0,0,0,0,0.0046,0.0047,0.0051,0.0047,0.0047,0.0035,0.0039,0.0037,0.0032,0.0024,0.002,0.0021,0.0012,0.001,0.0012,0.0006,0.0001,0.0001,0.0013,0.0013,0.0014,0.0015,0,0,0,0,0,0,0.0046,0.0047,0.0049,0.0048,0.0047,0.0055,0.004,0.0038,0.0031,0.0029,0.0019,0.0016,0.0011,0.0012,0.0012,0.0006,0.0001,0.0012,0.0013,0.0014,0.0015,0.0016,0.0017,0,0,0,0,0,0.0046,0.0054,0.0049,0.0049,0.0051,0.0055,0.0055,0.0044,0.0032,0.0035,0.0027,0.0016,0.0015,0.0012,0.0012,0.0006,0.0012,0.0013,0.0014,0.0015,0.0016,0.0017,0,0,0,0,0,0,0.005,0.0052,0.0047,0.0054,0.0053,0.0051,0.0052,0.0043,0.0041,0.0035,0.0025,0.0023,0.0021,0.0018,0.0016,0.0013,0.001,0.0011,0.0011,0.0012,0.0013,0.0014,0.0001,0,0,0,0,0,0.0053,0.006,0.0058,0.0063,0.0064,0.0057,0.0056,0.0049,0.0046,0.0043,0.0037,0.003,0.0027,0.0022,0.0023,0.0025,0.0011,0.0021,0.0021,0.0022,0.0024,-0.0004,-0.0006,0.0016,0.0016,0.0016,0,0,0.0054,0.0057,0.0059,0.0064,0.0063,0.0067,0.0055,0.0054,0.0054,0.0042,0.0042,0.0035,0.0029,0.0029,0.0027,0.0024,0.0009,0.0023,0.0024,0.0025,-0.0003,-0.0006,-0.0008,0.0017,0.0017,0.0017,0,0,0.0061,0.0064,0.0071,0.0074,0.0073,0.0072,0.0071,0.0068,0.0063,0.0064,0.0053,0.0045,0.0043,0.0036,0.0032,0.004,0.0016,0.0037,0.0039,0.0011,0.0009,0.0007,-0.0015,-0.0019,0.0034,0.0034,0.0034,0,0.0061,0.0073,0.0074,0.0081,0.0085,0.0074,0.0082,0.0078,0.0074,0.0074,0.0062,0.0053,0.0045,0.004,0.004,0.004,0.0022,0.0033,0.0011,0.0008,0.0006,-0.0016,-0.002,0.0035,0.0035,0.0034,0.0034,0,0.0073,0.0082,0.0088,0.0095,0.0099,0.0106,0.0101,0.0102,0.0091,0.0085,0.0077,0.0066,0.0059,0.0051,0.0046,0.0029,0.0021,0.0015,0.0005,0.0004,-0.0019,-0.0024,0.0035,0.0035,0.0035,0.0035,0,0,0.0075,0.0094,0.0095,0.0106,0.011,0.0117,0.0118,0.012,0.012,0.0104,0.01,0.0085,0.0072,0.0067,0.0055,0.0029,-0.0006,0.0014,0.0012,-0.0013,-0.0067,-0.0064,-0.007,-0.0021,-0.0022,-0.0023,-0.0077,0,0.0084,0.0107,0.0112,0.0131,0.0145,0.0142,0.0148,0.0146,0.0136,0.0131,0.0105,0.0099,0.0079,0.0074,0.0043,0.0012,-0.0019,0.001,-0.0057,-0.0059,-0.0061,-0.0075,-0.0025,-0.008,-0.0082,-0.0082,-0.0083,0,0.0093,0.0111,0.0134,0.0161,0.0166,0.0173,0.0185,0.0188,0.0174,0.0166,0.0144,0.0125,0.0094,0.0073,0.0004,0.0021,-0.0023,-0.0055,-0.0058,-0.0059,-0.0065,-0.0078,-0.0092,-0.0092,-0.0091,-0.009,-0.009,0,0.01,0.0127,0.015,0.0157,0.0181,0.019,0.02,0.0197,0.021,0.0186,0.0187,0.014,0.0125,0.0058,-0.0004,-0.0005,-0.0086,-0.0094,-0.0135,-0.0135,-0.0122,-0.0119,-0.0152,-0.0152,-0.0152,-0.0152,-0.0152,0,0.0113,0.013,0.0156,0.0169,0.0199,0.0206,0.023,0.023,0.0235,0.0253,0.0207,0.0205,0.0118,0.0066,-0.0002,-0.0081,-0.0086,-0.0138,-0.0151,-0.0119,-0.0115,-0.0126,-0.0122,-0.0154,-0.0153,-0.0153,-0.0153,0,0.0115,0.0131,0.016,0.0191,0.0204,0.0222,0.0262,0.0281,0.0279,0.0297,0.0294,0.0251,0.0181,0.0095,-0.0009,-0.0066,-0.0147,-0.0175,-0.013,-0.0139,-0.0181,-0.0176,-0.023,-0.023,-0.0231,-0.0231,-0.0231,0,0.012,0.0135,0.0176,0.0198,0.0213,0.0246,0.0276,0.0298,0.0321,0.0329,0.034,0.0285,0.0243,0.0105,0.0002,-0.0135,-0.0154,-0.02,-0.0199,-0.0182,-0.019,-0.0185,-0.018,-0.0232,-0.0232,-0.0232,-0.0232,0,0.0131,0.0141,0.0166,0.0212,0.0248,0.0294,0.0335,0.0361,0.0387,0.0388,0.0386,0.0316,0.0236,0.0117,0.0011,-0.0088,-0.0174,-0.0204,-0.0204,-0.0203,-0.0185,-0.0191,-0.0186,-0.0233,-0.0233,-0.0233,-0.0233,0,0.0138,0.0154,0.0187,0.0227,0.0276,0.0328,0.035,0.0388,0.0416,0.0429,0.0425,0.034,0.029,0.0141,0.0044,-0.0055,-0.0084,-0.0118,-0.0124,-0.0124,-0.0079,-0.004,-0.0058,0,0,0,0,0,0.0147,0.0166,0.0203,0.025,0.03,0.033,0.0388,0.0408,0.0436,0.0446,0.0441,0.037,0.0231,0.0166,0.0069,0.002,-0.0114,-0.0099,-0.016,-0.024,-0.0238,-0.0204,0,0,0,0,0,0,0.0153,0.0184,0.0201,0.0264,0.0299,0.036,0.04,0.0421,0.0426,0.0437,0.0367,0.0338,0.02,0.0287,0.0064,0.0033,-0.0021,-0.0164,-0.0167,-0.024,-0.0239,-0.0238,-0.0203,0,0,0,0,0]}]]